EW4443 Weather Reports


time (UTC)temp
F
wind
direction
speed
knots
gust
knots
rain 1hr
in
rain 24hr
in
rain mn
in
humidity
%
barometer
mb
20260831230529 87 270 0.9 4.3 0.00 0.31 0.13 50 1011.1
20260831230029 87 203 0.9 4.3 0.00 0.31 0.13 49 1011.1
20260831225529 87 270 0.0 5.2 0.00 0.31 0.13 50 1011.1
20260831225030 87 225 0.9 5.2 0.00 0.31 0.13 50 1011.1
20260831224530 87 0 0.9 3.5 0.00 0.31 0.13 48 1011.1
20260831224030 87 203 0.9 4.3 0.00 0.31 0.13 48 1011.5
20260831223530 87 180 0.9 4.3 0.00 0.31 0.13 48 1011.5
20260831223010 87 45 0.9 5.2 0.00 0.31 0.13 49 1011.1
20260831222511 87 248 0.9 5.2 0.00 0.31 0.13 46 1011.5
20260831222010 88 158 0.9 5.2 0.00 0.31 0.13 51 1011.8
20260831221510 87 270 0.9 4.3 0.00 0.31 0.13 48 1012.1
20260831221010 87 225 0.9 4.3 0.00 0.31 0.13 51 1011.8
20260831220511 88 0 0.0 4.3 0.00 0.31 0.13 50 1012.1
20260831220242 87 23 0.9 4.3 0.00 0.31 0.13 54 1012.1
20260831215511 87 225 0.9 6.1 0.00 0.31 0.13 54 1012.5
20260831215011 87 158 0.9 6.1 0.00 0.31 0.13 53 1012.8
20260831214511 87 225 0.9 5.2 0.00 0.31 0.13 53 1012.8
20260831214011 86 0 0.9 5.2 0.00 0.31 0.13 55 1013.3
20260831213510 86 113 0.9 5.2 0.00 0.31 0.13 55 1013.3
20260831213010 85 180 0.9 6.1 0.00 0.31 0.13 56 1013.3
20260831212510 85 135 0.9 7.8 0.00 0.31 0.13 55 1013.3
20260831212242 85 203 1.7 7.8 0.00 0.31 0.13 55 1013.6
20260831211511 84 180 0.9 5.2 0.00 0.31 0.13 58 1013.6
20260831211011 84 68 0.9 5.2 0.00 0.31 0.13 56 1013.9
20260831210511 84 225 0.9 6.1 0.00 0.31 0.13 58 1013.9
20260831210010 83 203 0.9 6.1 0.00 0.31 0.13 58 1013.9
20260831205514 83 158 0.9 5.2 0.00 0.31 0.13 59 1014.3
20260831205510 83 203 0.9 3.5 0.00 0.31 0.13 55 1013.9
20260831204510 83 225 0.9 5.2 0.00 0.31 0.13 60 1014.3
20260831204009 83 225 0.9 4.3 0.00 0.31 0.13 61 1014.3
20260831203511 82 158 0.9 8.7 0.00 0.31 0.13 63 1014.3
20260831203010 81 135 1.7 8.7 0.00 0.31 0.13 63 1014.6
20260831202510 81 225 0.9 7.8 0.00 0.31 0.13 63 1014.3
20260831202010 81 270 0.9 3.5 0.00 0.31 0.13 63 1014.3
20260831201510 80 225 0.9 5.2 0.00 0.31 0.13 65 1014.6
20260831201009 80 203 0.9 6.1 0.00 0.31 0.13 65 1014.3
20260831200509 80 158 1.7 6.1 0.00 0.31 0.13 68 1014.3
20260831200009 80 203 1.7 7.8 0.00 0.31 0.13 69 1014.3
20260831195509 80 180 1.7 8.7 0.00 0.31 0.13 68 1014.6
20260831195010 79 180 0.9 8.7 0.00 0.31 0.13 73 1014.6
20260831194510 78 225 0.9 4.3 0.00 0.31 0.13 73 1015.0
20260831194010 78 0 0.9 5.2 0.00 0.31 0.13 73 1014.6
20260831193510 78 180 0.9 5.2 0.00 0.31 0.13 74 1014.6
20260831193242 78 90 0.9 3.5 0.00 0.31 0.13 73 1015.0
20260831192509 78 315 0.9 4.3 0.00 0.31 0.13 74 1014.6
20260831192009 78 293 0.9 5.2 0.00 0.31 0.13 73 1014.6
20260831191511 77 225 0.9 5.2 0.00 0.31 0.13 75 1015.0
20260831191240 77 225 0.9 5.2 0.00 0.31 0.13 75 1015.0
20260831190509 77 158 0.9 5.2 0.00 0.31 0.13 76 1015.0
20260831190010 77 158 0.9 6.1 0.00 0.31 0.13 80 1015.0
20260831185510 76 270 0.9 7.0 0.00 0.31 0.13 79 1014.6
20260831185010 76 45 0.9 8.7 0.00 0.31 0.13 79 1015.0
20260831184510 76 180 0.9 8.7 0.00 0.31 0.13 78 1015.0
20260831184008 76 90 0.9 4.3 0.00 0.31 0.13 79 1015.0
20260831183509 76 158 0.9 4.3 0.00 0.31 0.13 79 1014.6
20260831183010 76 180 0.9 7.8 0.00 0.31 0.13 80 1014.6
20260831182508 76 180 0.9 7.8 0.00 0.31 0.13 81 1014.6
20260831182009 76 158 0.9 7.0 0.00 0.31 0.13 83 1015.0
20260831181510 76 203 0.9 5.2 0.00 0.31 0.13 85 1015.0
20260831181242 76 248 0.9 4.3 0.00 0.31 0.13 86 1015.0
20260831180510 76 180 0.9 4.3 0.00 0.31 0.13 86 1015.0
20260831180009 76 158 0.9 3.5 0.00 0.31 0.13 86 1015.0
20260831175513 75 203 0.0 2.6 0.00 0.31 0.13 86 1015.0
20260831175508 76 248 0.0 1.7 0.00 0.31 0.13 86 1015.0
20260831174508 75 0 0.9 3.5 0.00 0.31 0.13 86 1015.3
20260831174008 75 203 0.9 3.5 0.00 0.31 0.13 88 1015.6
20260831173509 75 338 0.0 2.6 0.00 0.31 0.13 88 1015.3
20260831173242 75 45 0.0 2.6 0.00 0.31 0.13 88 1015.3
20260831172509 75 315 0.0 1.7 0.00 0.31 0.13 88 1015.6
20260831172009 75 45 0.0 1.7 0.00 0.31 0.13 88 1015.6
20260831171509 75 270 0.0 1.7 0.01 0.31 0.13 88 1015.3
20260831171009 75 23 0.0 1.7 0.02 0.31 0.13 88 1015.3
20260831170508 75 270 0.0 3.5 0.03 0.31 0.13 88 1015.3
20260831170008 75 293 0.0 3.5 0.04 0.31 0.13 88 1015.3
20260831165508 75 23 0.0 2.6 0.05 0.31 0.13 88 1015.3
20260831165008 75 203 0.9 3.5 0.05 0.31 0.13 88 1015.3
20260831164509 75 45 0.9 4.3 0.05 0.31 0.13 88 1015.0
20260831164009 75 45 0.9 4.3 0.06 0.31 0.13 88 1015.3
20260831163509 75 68 0.9 4.3 0.06 0.31 0.13 88 1015.0
20260831163009 75 135 0.9 4.3 0.07 0.31 0.13 88 1015.3
20260831162509 75 45 0.9 5.2 0.08 0.31 0.13 88 1015.0
20260831162008 75 45 0.9 5.2 0.09 0.31 0.13 88 1015.3
20260831161508 75 23 0.9 4.3 0.09 0.30 0.12 88 1015.0
20260831161008 75 135 0.9 6.1 0.08 0.29 0.11 86 1014.6
20260831160509 75 68 1.7 6.1 0.07 0.28 0.10 86 1014.6
20260831160009 75 90 1.7 6.1 0.06 0.27 0.09 86 1014.6
20260831155510 75 68 1.7 6.1 0.05 0.26 0.08 86 1014.6
20260831155009 75 90 1.7 6.1 0.05 0.26 0.08 86 1014.6
20260831154509 75 45 1.7 6.1 0.06 0.26 0.08 86 1015.0
20260831154009 74 45 0.9 4.3 0.05 0.25 0.07 86 1015.0
20260831153449 74 45 0.9 3.5 0.06 0.25 0.07 86 1015.0
20260831152949 74 45 0.0 0.0 0.06 0.24 0.06 85 1015.3
20260831152720 74 0 0.0 0.0 0.05 0.23 0.05 85 1015.3
20260831151949 74 45 0.0 2.6 0.04 0.22 0.04 85 1015.0
20260831151449 74 135 0.0 3.5 0.03 0.21 0.03 83 1015.0
20260831150950 74 45 0.0 5.2 0.03 0.21 0.03 83 1015.0
20260831150451 74 45 0.9 6.1 0.03 0.21 0.03 83 1014.6
20260831145950 74 270 0.9 6.1 0.03 0.21 0.03 83 1015.0
20260831145454 75 225 0.9 3.5 0.03 0.21 0.03 81 1015.0
20260831145450 74 158 0.9 3.5 0.03 0.21 0.03 83 1014.6
20260831144719 75 180 0.9 4.3 0.02 0.20 0.02 81 1014.6
20260831143949 76 180 0.9 4.3 0.02 0.20 0.02 80 1014.6
20260831143449 77 225 0.9 6.1 0.01 0.19 0.01 78 1014.6
20260831142950 78 203 0.9 6.1 0.00 0.18 0.00 75 1014.6
20260831142721 79 180 1.7 5.2 0.00 0.18 0.00 71 1014.6
20260831141950 79 225 0.9 5.2 0.00 0.18 0.00 70 1014.3
20260831141450 79 270 0.9 6.1 0.00 0.18 0.00 70 1013.9
20260831140950 79 270 0.9 6.1 0.00 0.18 0.00 70 1013.6
20260831140449 79 203 0.9 5.2 0.00 0.18 0.00 70 1013.9
20260831140220 79 225 0.9 5.2 0.00 0.18 0.00 70 1013.3
20260831135720 80 293 0.9 5.2 0.00 0.18 0.00 70 1013.3
20260831134949 80 270 0.9 4.3 0.00 0.18 0.00 69 1013.3
20260831134449 80 315 0.9 4.3 0.00 0.18 0.00 68 1012.8
20260831133952 80 248 0.9 5.2 0.00 0.18 0.00 66 1012.8
20260831133450 80 158 0.9 5.2 0.00 0.18 0.00 65 1012.5
20260831132950 80 180 0.9 8.7 0.00 0.18 0.00 65 1012.8
20260831132449 80 180 1.7 8.7 0.00 0.18 0.00 63 1012.5
20260831131950 80 293 0.9 4.3 0.00 0.18 0.00 63 1012.5
20260831131448 80 180 0.9 4.3 0.00 0.18 0.00 63 1012.1
20260831130949 80 225 0.9 4.3 0.00 0.18 0.00 63 1012.1
20260831130452 80 180 0.0 3.5 0.00 0.18 0.00 63 1012.1
20260831130448 80 203 0.0 3.5 0.00 0.18 0.00 63 1012.1
20260831125450 80 248 0.9 4.3 0.00 0.18 0.00 65 1012.1
20260831125221 80 203 0.9 3.5 0.00 0.18 0.00 65 1011.8
20260831124450 80 158 0.9 6.1 0.00 0.18 0.00 65 1012.1
20260831123949 80 180 1.7 6.1 0.00 0.18 0.00 66 1012.1
20260831123449 80 203 0.9 4.3 0.00 0.18 0.00 68 1011.8
20260831123218 80 225 0.9 3.5 0.00 0.18 0.00 66 1011.8
20260831122448 80 158 0.9 3.5 0.00 0.18 0.00 66 1011.8
20260831121948 80 180 0.0 3.5 0.00 0.18 0.00 65 1011.8
20260831121719 80 158 0.9 3.5 0.00 0.18 0.00 65 1011.8
20260831120949 80 158 0.9 4.3 0.00 0.18 0.00 65 1011.5
20260831120449 80 180 0.9 4.3 0.00 0.18 0.00 65 1011.5
20260831115949 80 158 0.0 3.5 0.00 0.18 0.00 66 1011.5
20260831115449 80 225 0.9 4.3 0.00 0.18 0.00 66 1011.1
20260831115220 80 225 0.9 4.3 0.00 0.18 0.00 66 1011.1
20260831114448 80 158 0.9 4.3 0.00 0.18 0.00 66 1011.5
20260831113948 80 158 0.9 1.7 0.00 0.18 0.00 65 1011.1
20260831113448 80 158 0.0 1.7 0.00 0.18 0.00 65 1011.1
20260831112948 80 180 0.0 0.0 0.00 0.18 0.00 65 1010.8
20260831112449 80 23 0.0 0.0 0.00 0.18 0.00 65 1010.8
20260831111949 80 158 0.0 0.9 0.00 0.18 0.00 65 1010.5
20260831111450 80 45 0.0 0.9 0.00 0.18 0.00 65 1010.5
20260831110949 80 248 0.0 1.7 0.00 0.18 0.00 63 1010.8
20260831110449 80 23 0.0 4.3 0.00 0.18 0.00 65 1010.8
20260831110219 80 315 0.9 4.3 0.00 0.18 0.00 65 1010.8
20260831105447 80 0 0.0 4.3 0.00 0.18 0.00 65 1010.8
20260831104948 80 113 0.0 0.0 0.00 0.18 0.00 65 1010.5
20260831104718 80 180 0.0 0.0 0.00 0.18 0.00 65 1010.5
20260831103953 80 23 0.0 0.0 0.00 0.18 0.00 65 1010.0
20260831103949 80 338 0.0 0.0 0.00 0.18 0.00 65 1010.5
20260831103221 80 45 0.0 0.0 0.00 0.18 0.00 66 1009.7
20260831102449 80 45 0.0 1.7 0.00 0.18 0.00 65 1009.7
20260831101719 80 23 0.0 1.7 0.00 0.18 0.00 65 1009.3
20260831100947 79 45 0.0 1.7 0.00 0.18 0.00 66 1009.3
20260831100452 79 90 0.0 0.9 0.00 0.18 0.00 65 1009.7
20260831100448 79 23 0.0 0.9 0.00 0.18 0.00 65 1009.7
20260831095448 79 68 0.0 0.9 0.00 0.18 0.00 66 1010.0
20260831095219 79 45 0.0 2.6 0.00 0.18 0.00 66 1009.3
20260831094449 79 45 0.0 2.6 0.00 0.18 0.00 66 1010.0
20260831093949 79 248 0.0 3.5 0.00 0.18 0.00 66 1010.0
20260831093448 79 90 0.0 3.5 0.00 0.18 0.00 66 1010.0
20260831092949 79 68 0.0 5.2 0.00 0.18 0.00 68 1010.0
20260831092447 79 23 0.9 5.2 0.00 0.18 0.00 68 1010.0
20260831091947 79 90 0.9 4.3 0.00 0.18 0.00 68 1010.0
20260831091447 79 90 0.9 4.3 0.00 0.18 0.00 68 1010.5
20260831090948 79 23 0.9 5.2 0.00 0.18 0.00 66 1010.5
20260831090448 79 0 1.7 6.1 0.00 0.18 0.00 66 1010.5
20260831090220 79 68 1.7 9.6 0.00 0.18 0.00 66 1010.5
20260831085450 79 45 1.7 10.4 0.00 0.18 0.00 66 1010.5
20260831084949 79 0 1.7 10.4 0.00 0.18 0.00 68 1010.5
20260831084720 79 45 1.7 8.7 0.00 0.18 0.00 68 1010.5
20260831083947 79 113 0.9 7.0 0.00 0.18 0.00 69 1010.5
20260831083447 79 23 1.7 7.0 0.00 0.18 0.00 68 1010.5
20260831082947 80 45 1.7 7.8 0.00 0.18 0.00 68 1010.5
20260831082448 80 23 1.7 12.2 0.00 0.18 0.00 68 1010.8
20260831081948 80 23 2.6 12.2 0.00 0.18 0.00 68 1010.8
20260831081453 80 23 0.9 4.3 0.00 0.18 0.00 69 1010.8
20260831081448 80 68 0.9 5.2 0.00 0.18 0.00 69 1010.8
20260831080720 80 45 0.9 5.2 0.00 0.18 0.00 70 1010.8
20260831075948 80 113 0.9 6.1 0.00 0.18 0.00 70 1011.1
20260831075446 80 23 1.7 6.1 0.00 0.18 0.00 70 1010.8
20260831074947 80 45 1.7 7.0 0.00 0.18 0.00 70 1011.1
20260831074447 80 68 1.7 7.0 0.00 0.18 0.00 70 1011.1
20260831073946 80 23 0.9 5.2 0.00 0.18 0.00 70 1011.1
20260831073448 80 23 0.9 5.2 0.00 0.18 0.00 70 1010.8
20260831072948 80 0 0.9 5.2 0.00 0.18 0.00 70 1010.5
20260831072448 80 23 0.9 4.3 0.00 0.18 0.00 70 1010.8
20260831071948 80 315 0.9 10.4 0.00 0.18 0.00 70 1010.5
20260831071718 80 0 1.7 10.4 0.00 0.18 0.00 70 1010.0
20260831070946 80 45 1.7 10.4 0.00 0.18 0.00 70 1010.0
20260831070445 80 338 1.7 10.4 0.00 0.18 0.00 71 1010.5
20260831070217 80 293 1.7 7.8 0.00 0.18 0.18 70 1010.5
20260831065446 80 0 1.7 10.4 0.00 0.18 0.18 71 1010.5
20260831064947 80 45 1.7 10.4 0.00 0.18 0.18 71 1010.5
20260831064447 80 23 1.7 7.8 0.00 0.18 0.18 71 1010.5
20260831063947 80 0 1.7 7.8 0.00 0.18 0.18 71 1010.0
20260831063446 80 45 1.7 7.8 0.00 0.18 0.18 70 1010.0
20260831062945 80 0 1.7 7.8 0.00 0.18 0.18 70 1010.0
20260831062445 80 23 1.7 7.8 0.00 0.18 0.18 70 1010.0
20260831061945 80 23 1.7 6.1 0.00 0.18 0.18 70 1009.7
20260831061715 80 338 1.7 9.6 0.00 0.18 0.18 70 1009.7
20260831060944 79 23 1.7 9.6 0.01 0.18 0.18 70 1009.7
20260831060446 79 23 0.9 3.5 0.01 0.18 0.18 71 1009.7
20260831055945 79 23 0.9 4.3 0.01 0.18 0.18 71 1009.0
20260831055716 79 270 0.9 4.3 0.01 0.18 0.18 70 1009.0
20260831054945 79 225 0.9 5.2 0.01 0.18 0.18 71 1009.0
20260831054446 79 225 0.9 6.1 0.01 0.18 0.18 70 1008.7
20260831053945 80 225 1.7 6.1 0.01 0.18 0.18 70 1009.0
20260831053445 80 248 0.9 6.1 0.01 0.18 0.18 70 1009.0
20260831052944 80 180 1.7 8.7 0.01 0.18 0.18 70 1009.0
20260831052444 80 203 1.7 8.7 0.01 0.18 0.18 68 1009.0
20260831051946 80 203 0.9 5.2 0.01 0.18 0.18 70 1009.0
20260831051446 81 158 0.9 6.1 0.02 0.18 0.18 69 1009.0
20260831051217 81 270 1.7 8.7 0.04 0.17 0.17 65 1009.3
20260831050446 80 225 1.7 10.4 0.14 0.17 0.17 65 1008.7
20260831045945 80 113 1.7 10.4 0.17 0.17 0.17 70 1009.3
20260831045444 79 203 2.6 13.9 0.17 0.17 0.17 71 1009.7
20260831044944 79 225 2.6 13.9 0.17 0.17 0.17 75 1009.3
20260831044443 79 180 2.6 10.4 0.17 0.17 0.17 76 1009.7
20260831043943 79 135 2.6 12.2 0.17 0.17 0.17 76 1009.7
20260831043445 79 158 2.6 13.0 0.17 0.17 0.17 78 1009.3
20260831042944 79 180 2.6 13.0 0.17 0.17 0.17 78 1009.0
20260831042715 79 248 2.6 13.0 0.17 0.17 0.17 78 1009.3
20260831042216 80 68 2.6 10.4 0.17 0.17 0.17 78 1008.7
20260831041443 82 203 1.7 13.0 0.16 0.16 0.16 75 1008.7
20260831040942 86 203 3.5 13.0 0.13 0.13 0.14 69 1009.0
20260831040442 91 180 2.6 13.9 0.03 0.03 0.04 59 1009.0
20260831035944 93 203 3.5 15.6 0.00 0.00 0.00 44 1009.0
20260831035442 93 180 3.5 15.6 0.00 0.00 0.00 41 1008.7
20260831034944 94 0 2.6 10.4 0.00 0.00 0.00 40 1009.0
20260831034443 95 203 2.6 13.0 0.00 0.00 0.00 39 1008.7
20260831033943 96 203 3.5 13.0 0.00 0.00 0.00 37 1008.3
20260831033443 97 203 3.5 13.9 0.00 0.00 0.00 37 1008.3
20260831032942 99 270 0.9 13.9 0.00 0.00 0.00 34 1007.6
20260831032443 99 270 0.0 1.7 0.00 0.00 0.00 34 1007.6
20260831031942 99 180 0.0 0.9 0.00 0.00 0.00 34 1007.3
20260831031441 99 270 0.0 1.7 0.00 0.00 0.00 35 1007.6
20260831030942 99 315 0.0 3.5 0.00 0.00 0.00 34 1007.3
20260831030715 99 338 0.0 3.5 0.00 0.00 0.00 34 1006.9
20260831030215 99 270 0.0 2.6 0.00 0.00 0.00 34 1006.9
20260831025444 99 270 0.0 2.6 0.00 0.00 0.00 34 1006.9
20260831024943 99 338 0.0 2.6 0.00 0.00 0.00 34 1006.5
20260831024444 100 315 0.0 3.5 0.00 0.00 0.00 32 1006.5
20260831023943 100 45 0.0 3.5 0.00 0.00 0.00 32 1006.5
20260831023442 100 293 0.0 2.6 0.00 0.00 0.00 34 1006.5
20260831022942 100 270 0.0 2.6 0.00 0.00 0.00 32 1006.5
20260831022713 100 293 0.0 2.6 0.00 0.00 0.00 32 1006.5
20260831021943 100 338 0.0 3.5 0.00 0.00 0.00 32 1006.5
20260831021444 101 90 0.0 3.5 0.00 0.00 0.00 32 1006.5
20260831020944 101 0 0.9 3.5 0.00 0.00 0.00 32 1006.2
20260831015943 101 113 0.0 2.6 0.00 0.00 0.00 31 1005.9
20260831015442 101 270 0.0 2.6 0.00 0.00 0.00 30 1005.9
20260831014943 102 293 0.0 3.5 0.00 0.00 0.00 30 1005.9
20260831014712 102 203 0.0 3.5 0.00 0.00 0.00 30 1005.9
20260831013941 102 203 0.0 4.3 0.00 0.00 0.00 30 1005.9
20260831013443 102 270 0.9 4.3 0.00 0.00 0.00 30 1005.5
20260831012943 103 45 0.0 2.6 0.00 0.00 0.00 30 1005.5
20260831012443 103 45 0.0 2.6 0.00 0.00 0.00 30 1005.5
20260831011943 103 68 0.0 2.6 0.00 0.00 0.00 30 1005.5
20260831011443 103 293 0.0 4.3 0.00 0.00 0.00 30 1005.5
20260831010942 104 45 0.9 4.3 0.00 0.00 0.00 30 1005.5
20260831010442 104 0 0.0 2.6 0.00 0.00 0.00 30 1005.9
20260831005942 104 23 0.0 6.1 0.00 0.00 0.00 30 1005.5
20260831005441 104 315 0.9 6.1 0.00 0.00 0.00 29 1005.5
20260831004942 104 158 0.0 2.6 0.00 0.00 0.00 29 1005.9
20260831004443 105 293 0.0 3.5 0.00 0.00 0.00 29 1005.9
20260831003943 105 135 0.0 3.5 0.00 0.00 0.00 29 1005.9
20260831003443 105 203 0.0 3.5 0.00 0.00 0.00 29 1005.9
20260831002943 105 203 0.9 6.1 0.00 0.00 0.00 29 1005.9
20260831002441 106 270 0.9 6.1 0.00 0.00 0.00 29 1005.5
20260831001942 106 203 0.0 3.5 0.00 0.00 0.00 29 1005.9
20260831001442 106 270 0.9 3.5 0.00 0.00 0.00 27 1005.9
20260831000941 106 225 0.0 3.5 0.00 0.00 0.00 29 1005.9
20260831000712 106 315 0.9 3.5 0.00 0.00 0.00 29 1005.9
20260830235943 106 45 0.0 3.5 0.00 0.00 0.00 29 1005.9
20260830235714 106 338 0.0 5.2 0.00 0.00 0.00 29 1005.9
20260830235214 106 180 0.9 5.2 0.00 0.00 0.00 27 1006.2
20260830234713 106 338 0.9 4.3 0.00 0.00 0.00 27 1005.9
20260830233942 106 203 0.0 3.5 0.00 0.00 0.00 27 1006.2
20260830233442 106 270 0.0 3.5 0.00 0.00 0.00 27 1006.2
20260830232941 107 180 0.9 5.2 0.00 0.00 0.00 27 1006.2
20260830232442 107 225 0.9 5.2 0.00 0.00 0.00 27 1006.2
20260830231941 107 180 0.9 5.2 0.00 0.00 0.00 27 1006.2
20260830231442 107 68 0.9 4.3 0.00 0.00 0.00 29 1006.5
20260830231213 107 68 0.9 4.3 0.00 0.00 0.00 27 1006.5